User: anonymous   Login
Location: Clinton NY
(43.0598°N, 75.3602°W)
Time: 20:39:50
(UTC-05:00)
Language:

Cosmos-2242 - Orbit

View from above orbital plane
View from above orbital plane
View from above satellite
View from above satellite

Ground track
Ground track

The orbit data is extracted from the following two-line orbital elements,

1 22626U 93024A   14356.01122049  .00003310  00000-0  37113-3 0  2925
2 22626 082.5210 177.4423 0018207 252.5512 107.3714 14.86442839171164
Epoch (UTC): 22 December 2014 00:16:09
Eccentricity: 0.0018207
inclination: 82.5210°
perigee height: 596 km
apogee height: 622 km
right ascension of ascending node: 177.4423°
argument of perigee: 252.5512°
revolutions per day: 14.86442839
mean anomaly at epoch: 107.3714°
orbit number at epoch: 17116

The dashed part of the orbit path shows where the satellite is in the earth's shadow,  

DLR